Weather History for The Dalles, OR

Change the Weather History Date:

Wednesday, April 3, 2013

  Actual Average Record
Temperature  
Mean Temperature 56 °F -  
Max Temperature 71 °F 61 °F 77 °F (1951)
Min Temperature 42 °F 37 °F 23 °F (2007)
Degree Days  
Heating Degree Days 8    
Growing Degree Days 6 (Base 50)    
Moisture  
Dew Point 43 °F    
Average Humidity 63    
Maximum Humidity 85    
Minimum Humidity 36    
Precipitation  
Precipitation 0.00 in - - ()
Sea Level Pressure  
Sea Level Pressure 30.06 in    
Wind  
Wind Speed 4 mph (NNW)    
Max Wind Speed 10 mph    
Max Gust Speed -    
Visibility 10 miles    
Events      
Averages and records for this station are not official NWS values.
T = Trace of Precipitation, MM = Missing Value Source: NWS Daily Summary

Daily Weather History Graph

Daily Weather History Graph

Search for Another Location

Airport:

Trip Planner

Search our weather history database for the weather conditions in past years. The results will help you decide how hot, cold, wet, or windy it might be!

Date:

Astronomy

Apr. 03, 2013 Rise Set
Actual Time 6:40 AM PDT 7:35 PM PDT
Civil Twilight 6:10 AM PDT 8:06 PM PDT
Nautical Twilight 5:34 AM PDT 8:42 PM PDT
Astronomical Twilight 4:56 AM PDT 9:20 PM PDT
Moon 2:44 AM PDT (4/3) 12:35 PM PDT (4/3)
Length of Visible Light 13h 55m
Length of Day
12h 55m
Last Quarter, 43% of the Moon is Illuminated
Apr 3
Last Quarter
Apr 10
New
Apr 18
First Quarter
Apr 25
Full
May 2
Last Quarter

Hourly Weather History & Observations

Time (PDT) Temp. Windchill Dew Point Humidity Pressure Visibility Wind Dir Wind Speed Gust Speed Precip Events Conditions
12:53 AM 53.1 °F - 45.0 °F 74% 30.12 in 10.0 mi West 4.6 mph - N/A   Clear
1:53 AM 48.0 °F - 42.1 °F 80% 30.14 in 10.0 mi East 4.6 mph - N/A   Clear
2:53 AM 46.9 °F - 41.0 °F 80% 30.14 in 10.0 mi Calm Calm - N/A   Clear
3:53 AM 44.1 °F 42.5 °F 39.0 °F 82% 30.13 in 10.0 mi Variable 3.5 mph - N/A   Clear
4:53 AM 44.1 °F 40.8 °F 39.0 °F 82% 30.14 in 10.0 mi ESE 5.8 mph - N/A   Clear
5:53 AM 45.0 °F - 39.0 °F 80% 30.14 in 10.0 mi Calm Calm - N/A   Clear
6:53 AM 42.1 °F 37.7 °F 37.9 °F 85% 30.14 in 10.0 mi East 6.9 mph - N/A   Clear
7:53 AM 46.0 °F - 41.0 °F 83% 30.15 in 10.0 mi Calm Calm - N/A   Clear
8:53 AM 50.0 °F - 43.0 °F 77% 30.14 in 10.0 mi Calm Calm - N/A   Clear
9:53 AM 54.0 °F - 45.0 °F 72% 30.13 in 10.0 mi North 3.5 mph - N/A   Clear
10:53 AM 57.9 °F - 46.0 °F 65% 30.11 in 10.0 mi Calm Calm - N/A   Clear
11:53 AM 63.0 °F - 46.9 °F 56% 30.09 in 10.0 mi Calm Calm - N/A   Clear
12:53 PM 66.9 °F - 46.0 °F 47% 30.06 in 10.0 mi Calm Calm - N/A   Clear
1:53 PM 69.1 °F - 44.1 °F 40% 30.05 in 10.0 mi WNW 5.8 mph - N/A   Clear
2:53 PM 70.0 °F - 42.1 °F 36% 30.02 in 10.0 mi NW 5.8 mph - N/A   Clear
3:53 PM 71.1 °F - 43.0 °F 36% 30.01 in 10.0 mi NW 8.1 mph - N/A   Clear
4:53 PM 69.1 °F - 45.0 °F 42% 29.99 in 10.0 mi NNW 10.4 mph - N/A   Clear
5:53 PM 66.9 °F - 46.9 °F 49% 29.98 in 10.0 mi NW 8.1 mph - N/A   Clear
6:53 PM 64.9 °F - 45.0 °F 48% 29.96 in 10.0 mi NNW 6.9 mph - N/A   Clear
7:53 PM 63.0 °F - 45.0 °F 52% 29.95 in 10.0 mi NNW 8.1 mph - N/A   Clear
8:53 PM 60.1 °F - 44.1 °F 55% 29.95 in 10.0 mi WNW 3.5 mph - N/A   Clear
9:53 PM 60.1 °F - 45.0 °F 57% 29.96 in 10.0 mi Calm Calm - N/A   Clear
10:53 PM 57.0 °F - 46.0 °F 67% 29.94 in 10.0 mi Calm Calm - N/A   Clear
11:53 PM 54.0 °F - 45.0 °F 72% 29.94 in 10.0 mi Calm Calm - N/A   Clear